| time (UTC) | temp F | wind direction | speed MPH | gust MPH | rain 1hr in | rain 24hr in | rain mn in | humidity % | barometer mb |
| 20260510153322 | 75 | 121 | 8.0 | 9.0 | 0.00 | 0.00 | 0.00 | 50 | 987.1 |
| 20260510152734 | 76 | 60 | 1.0 | 2.0 | 0.00 | 0.00 | 0.00 | 60 | 987.1 |
| 20260510152149 | 77 | 264 | 2.0 | 3.0 | 0.00 | 0.00 | 0.00 | 49 | 987.1 |
| 20260510151535 | 76 | 239 | 1.0 | 2.0 | 0.00 | 0.00 | 0.00 | 54 | 987.1 |
| 20260510150914 | 75 | 61 | 1.0 | 2.0 | 0.00 | 0.00 | 0.00 | 55 | 987.4 |
| 20260510150339 | 74 | 79 | 0.0 | 1.0 | 0.00 | 0.00 | 0.00 | 70 | 987.4 |
| 20260510145717 | 72 | 73 | 1.0 | 3.0 | 0.00 | 0.00 | 0.00 | 68 | 987.4 |
| 20260510145138 | 71 | 55 | 0.0 | 2.0 | 0.00 | 0.00 | 0.00 | 76 | 987.4 |
| 20260510144510 | 69 | 337 | 1.0 | 1.0 | 0.00 | 0.00 | 0.00 | 77 | 987.4 |
| 20260510143927 | 69 | 312 | 0.0 | 1.0 | 0.00 | 0.00 | 0.00 | 78 | 987.8 |
| 20260510143335 | 68 | 18 | 0.0 | 0.0 | 0.00 | 0.00 | 0.00 | 80 | 987.4 |
| 20260510142713 | 67 | 18 | 0.0 | 0.0 | 0.00 | 0.00 | 0.00 | 83 | 987.4 |
| 20260510142128 | 67 | 8 | 1.0 | 2.0 | 0.00 | 0.00 | 0.00 | 79 | 987.4 |
| 20260510140929 | 68 | 11 | 0.0 | 2.0 | 0.00 | 0.00 | 0.00 | 77 | 987.4 |
| 20260510135715 | 66 | 68 | 1.0 | 1.0 | 0.00 | 0.00 | 0.00 | 79 | 987.4 |
| 20260510135116 | 64 | 102 | 0.0 | 1.0 | 0.00 | 0.00 | 0.00 | 82 | 987.1 |
| 20260510134511 | 64 | 92 | 1.0 | 3.0 | 0.00 | 0.00 | 0.00 | 82 | 987.4 |
| 20260510133348 | 62 | 47 | 0.0 | 1.0 | 0.00 | 0.00 | 0.00 | 84 | 987.4 |
| 20260510132749 | 60 | 72 | 1.0 | 3.0 | 0.00 | 0.00 | 0.00 | 85 | 987.4 |
| 20260510131517 | 59 | 68 | 1.0 | 1.0 | 0.00 | 0.00 | 0.00 | 87 | 987.8 |
| 20260510130920 | 58 | 35 | 2.0 | 3.0 | 0.00 | 0.00 | 0.00 | 87 | 987.8 |
| 20260510130331 | 58 | 324 | 0.0 | 1.0 | 0.00 | 0.00 | 0.00 | 88 | 988.1 |
| 20260510125751 | 58 | 55 | 0.0 | 2.0 | 0.00 | 0.00 | 0.00 | 88 | 988.1 |
| 20260510125144 | 57 | 94 | 0.0 | 1.0 | 0.00 | 0.00 | 0.00 | 90 | 987.8 |
| 20260510123308 | 53 | 36 | 1.0 | 2.0 | 0.00 | 0.00 | 0.00 | 97 | 988.1 |
| 20260510122730 | 52 | 170 | 1.0 | 2.0 | 0.00 | 0.00 | 0.00 | 98 | 988.1 |
| 20260510122134 | 51 | 167 | 1.0 | 2.0 | 0.00 | 0.00 | 0.00 | 98 | 988.1 |
| 20260510121511 | 51 | 161 | 0.0 | 1.0 | 0.00 | 0.00 | 0.00 | 98 | 988.4 |
| 20260510120949 | 51 | 182 | 0.0 | 1.0 | 0.00 | 0.00 | 0.00 | 98 | 988.1 |
| 20260510115743 | 50 | 182 | 0.0 | 1.0 | 0.00 | 0.00 | 0.00 | 99 | 987.8 |
| 20260510114518 | 50 | 105 | 1.0 | 2.0 | 0.00 | 0.00 | 0.00 | 99 | 987.8 |
| 20260510113914 | 49 | 221 | 0.0 | 1.0 | 0.00 | 0.00 | 0.00 | 99 | 987.8 |
| 20260510112710 | 49 | 177 | 2.0 | 3.0 | 0.00 | 0.00 | 0.00 | 99 | 987.4 |
| 20260510112131 | 49 | 219 | 2.0 | 2.0 | 0.00 | 0.00 | 0.00 | 99 | 987.1 |
| 20260510111532 | 48 | 105 | 1.0 | 2.0 | 0.00 | 0.00 | 0.00 | 99 | 987.4 |
| 20260510110933 | 48 | 103 | 0.0 | 2.0 | 0.00 | 0.00 | 0.00 | 99 | 987.1 |
| 20260510110312 | 48 | 176 | 1.0 | 2.0 | 0.00 | 0.00 | 0.00 | 99 | 987.1 |
| 20260510105747 | 48 | 171 | 2.0 | 2.0 | 0.00 | 0.00 | 0.00 | 99 | 987.1 |
| 20260510105143 | 48 | 209 | 0.0 | 2.0 | 0.00 | 0.00 | 0.00 | 99 | 987.1 |
| 20260510103935 | 47 | 198 | 0.0 | 2.0 | 0.00 | 0.00 | 0.00 | 99 | 986.7 |
| 20260510103324 | 47 | 193 | 1.0 | 2.0 | 0.00 | 0.00 | 0.00 | 99 | 986.7 |
| 20260510102717 | 48 | 147 | 2.0 | 2.0 | 0.00 | 0.00 | 0.00 | 99 | 986.7 |
| 20260510102142 | 48 | 190 | 1.0 | 2.0 | 0.00 | 0.00 | 0.00 | 99 | 986.7 |
| 20260510101511 | 48 | 148 | 0.0 | 3.0 | 0.00 | 0.00 | 0.00 | 99 | 986.7 |
| 20260510100351 | 48 | 206 | 0.0 | 1.0 | 0.00 | 0.00 | 0.00 | 99 | 986.7 |
| 20260510095710 | 48 | 184 | 2.0 | 3.0 | 0.00 | 0.00 | 0.00 | 99 | 986.4 |
| 20260510095139 | 47 | 177 | 2.0 | 2.0 | 0.00 | 0.00 | 0.00 | 99 | 986.4 |
| 20260510094539 | 48 | 189 | 2.0 | 2.0 | 0.00 | 0.00 | 0.00 | 99 | 986.4 |
| 20260510093908 | 48 | 193 | 1.0 | 2.0 | 0.00 | 0.00 | 0.00 | 99 | 986.4 |
| 20260510093327 | 47 | 182 | 1.0 | 2.0 | 0.00 | 0.00 | 0.00 | 99 | 986.1 |
| 20260510092725 | 47 | 183 | 1.0 | 2.0 | 0.00 | 0.00 | 0.00 | 99 | 986.1 |
| 20260510092129 | 48 | 187 | 1.0 | 2.0 | 0.00 | 0.00 | 0.00 | 99 | 986.1 |
| 20260510091537 | 48 | 181 | 1.0 | 2.0 | 0.00 | 0.00 | 0.00 | 99 | 985.7 |
| 20260510090909 | 48 | 193 | 1.0 | 2.0 | 0.00 | 0.00 | 0.00 | 99 | 986.1 |
| 20260510090341 | 48 | 181 | 2.0 | 2.0 | 0.00 | 0.00 | 0.00 | 99 | 986.1 |
| 20260510085716 | 48 | 188 | 1.0 | 1.0 | 0.00 | 0.00 | 0.00 | 99 | 985.7 |
| 20260510083948 | 49 | 196 | 2.0 | 2.0 | 0.00 | 0.00 | 0.00 | 99 | 985.7 |
| 20260510083352 | 49 | 184 | 0.0 | 1.0 | 0.00 | 0.00 | 0.00 | 99 | 985.7 |
| 20260510082744 | 49 | 172 | 1.0 | 2.0 | 0.00 | 0.00 | 0.00 | 99 | 985.7 |
| 20260510082119 | 48 | 133 | 1.0 | 1.0 | 0.00 | 0.00 | 0.00 | 99 | 985.7 |
| 20260510081549 | 48 | 188 | 0.0 | 2.0 | 0.00 | 0.00 | 0.00 | 99 | 985.7 |
| 20260510080918 | 48 | 201 | 1.0 | 1.0 | 0.00 | 0.00 | 0.00 | 99 | 985.7 |
| 20260510080327 | 48 | 118 | 1.0 | 2.0 | 0.00 | 0.00 | 0.00 | 99 | 985.7 |
| 20260510075750 | 48 | 187 | 2.0 | 3.0 | 0.00 | 0.00 | 0.00 | 99 | 985.7 |
| 20260510074542 | 48 | 196 | 2.0 | 2.0 | 0.00 | 0.00 | 0.00 | 99 | 985.7 |
| 20260510073942 | 49 | 220 | 1.0 | 2.0 | 0.00 | 0.00 | 0.00 | 99 | 985.4 |
| 20260510073347 | 49 | 165 | 1.0 | 2.0 | 0.00 | 0.00 | 0.00 | 99 | 985.7 |
| 20260510072734 | 49 | 173 | 1.0 | 1.0 | 0.00 | 0.00 | 0.00 | 99 | 985.4 |
| 20260510072126 | 48 | 204 | 2.0 | 3.0 | 0.00 | 0.00 | 0.00 | 99 | 985.1 |
| 20260510071546 | 49 | 164 | 1.0 | 2.0 | 0.00 | 0.00 | 0.00 | 99 | 985.4 |
| 20260510070925 | 49 | 175 | 2.0 | 2.0 | 0.00 | 0.00 | 0.00 | 99 | 985.4 |
| 20260510070312 | 49 | 153 | 0.0 | 3.0 | 0.00 | 0.00 | 0.00 | 99 | 985.1 |
| 20260510065734 | 48 | 175 | 2.0 | 2.0 | 0.00 | 0.00 | 0.00 | 99 | 985.1 |
| 20260510065141 | 48 | 188 | 1.0 | 1.0 | 0.00 | 0.00 | 0.00 | 99 | 985.1 |
| 20260510063923 | 49 | 180 | 2.0 | 3.0 | 0.00 | 0.00 | 0.00 | 99 | 985.4 |
| 20260510063330 | 49 | 104 | 1.0 | 2.0 | 0.00 | 0.00 | 0.00 | 99 | 985.4 |
| 20260510062709 | 49 | 208 | 0.0 | 2.0 | 0.00 | 0.00 | 0.00 | 99 | 985.4 |
| 20260510062146 | 49 | 174 | 0.0 | 1.0 | 0.00 | 0.00 | 0.00 | 99 | 985.4 |
| 20260510061534 | 49 | 120 | 0.0 | 2.0 | 0.00 | 0.00 | 0.00 | 99 | 985.1 |
| 20260510060949 | 49 | 210 | 0.0 | 0.0 | 0.00 | 0.00 | 0.00 | 99 | 985.4 |
| 20260510060341 | 49 | 210 | 0.0 | 1.0 | 0.00 | 0.00 | 0.00 | 99 | 985.4 |
| 20260510055725 | 49 | 191 | 1.0 | 2.0 | 0.00 | 0.00 | 0.00 | 99 | 985.4 |
| 20260510055118 | 49 | 223 | 0.0 | 1.0 | 0.00 | 0.00 | 0.00 | 99 | 985.7 |
| 20260510054538 | 49 | 207 | 0.0 | 2.0 | 0.00 | 0.00 | 0.00 | 99 | 985.7 |
| 20260510053314 | 50 | 167 | 0.0 | 1.0 | 0.00 | 0.00 | 0.00 | 99 | 985.4 |
| 20260510052149 | 49 | 190 | 1.0 | 2.0 | 0.00 | 0.00 | 0.00 | 99 | 985.7 |
| 20260510051548 | 50 | 192 | 1.0 | 1.0 | 0.00 | 0.00 | 0.00 | 99 | 985.4 |
| 20260510050912 | 50 | 182 | 0.0 | 0.0 | 0.00 | 0.00 | 0.00 | 99 | 985.4 |
| 20260510050332 | 50 | 182 | 0.0 | 0.0 | 0.00 | 0.00 | 0.00 | 99 | 985.4 |
| 20260510045721 | 50 | 182 | 1.0 | 1.0 | 0.00 | 0.00 | 0.00 | 99 | 985.4 |
| 20260510045110 | 50 | 182 | 0.0 | 1.0 | 0.00 | 0.00 | 0.00 | 99 | 985.4 |
| 20260510043931 | 50 | 185 | 2.0 | 2.0 | 0.00 | 0.00 | 0.00 | 99 | 985.4 |
| 20260510043338 | 50 | 181 | 1.0 | 1.0 | 0.00 | 0.00 | 0.00 | 99 | 985.1 |
| 20260510042711 | 51 | 168 | 1.0 | 2.0 | 0.00 | 0.00 | 0.00 | 99 | 985.4 |
| 20260510042145 | 51 | 176 | 0.0 | 1.0 | 0.00 | 0.00 | 0.00 | 99 | 985.4 |
| 20260510041533 | 51 | 176 | 0.0 | 1.0 | 0.00 | 0.00 | 0.00 | 99 | 985.7 |
| 20260510040924 | 51 | 185 | 0.0 | 1.0 | 0.00 | 0.00 | 0.00 | 99 | 985.7 |
| 20260510040343 | 51 | 185 | 0.0 | 1.0 | 0.00 | 0.00 | 0.00 | 99 | 985.4 |
| 20260510035747 | 51 | 185 | 0.0 | 0.0 | 0.00 | 0.00 | 0.00 | 99 | 985.4 |
| 20260510035123 | 51 | 184 | 0.0 | 1.0 | 0.00 | 0.00 | 0.00 | 99 | 985.4 |
| 20260510034541 | 51 | 184 | 0.0 | 1.0 | 0.00 | 0.00 | 0.00 | 99 | 985.4 |
| 20260510033910 | 52 | 189 | 1.0 | 1.0 | 0.00 | 0.00 | 0.00 | 99 | 985.1 |
| 20260510033316 | 52 | 176 | 0.0 | 0.0 | 0.00 | 0.00 | 0.00 | 99 | 985.1 |
| 20260510032752 | 52 | 176 | 0.0 | 1.0 | 0.00 | 0.00 | 0.00 | 99 | 985.1 |
| 20260510032147 | 52 | 178 | 1.0 | 2.0 | 0.00 | 0.00 | 0.00 | 99 | 985.1 |
| 20260510031524 | 52 | 184 | 2.0 | 2.0 | 0.00 | 0.00 | 0.00 | 99 | 985.1 |
| 20260510030919 | 52 | 188 | 0.0 | 2.0 | 0.00 | 0.00 | 0.00 | 99 | 985.1 |
| 20260510030328 | 53 | 171 | 2.0 | 3.0 | 0.00 | 0.00 | 0.00 | 99 | 985.1 |
| 20260510025732 | 53 | 179 | 1.0 | 2.0 | 0.00 | 0.00 | 0.00 | 99 | 985.1 |
| 20260510025123 | 53 | 193 | 1.0 | 2.0 | 0.00 | 0.00 | 0.00 | 99 | 985.1 |
| 20260510023940 | 53 | 192 | 0.0 | 1.0 | 0.00 | 0.00 | 0.00 | 99 | 985.1 |
| 20260510022739 | 53 | 209 | 0.0 | 0.0 | 0.00 | 0.00 | 0.00 | 98 | 984.7 |
| 20260510021510 | 54 | 191 | 2.0 | 2.0 | 0.00 | 0.00 | 0.00 | 98 | 984.7 |
| 20260510020952 | 54 | 202 | 0.0 | 0.0 | 0.00 | 0.00 | 0.00 | 97 | 984.7 |
| 20260510015740 | 54 | 202 | 0.0 | 1.0 | 0.00 | 0.00 | 0.00 | 97 | 984.0 |
| 20260510015143 | 55 | 201 | 0.0 | 1.0 | 0.00 | 0.00 | 0.00 | 97 | 984.4 |
| 20260510014511 | 55 | 205 | 0.0 | 0.0 | 0.00 | 0.00 | 0.00 | 96 | 984.0 |
| 20260510013946 | 55 | 204 | 0.0 | 1.0 | 0.00 | 0.00 | 0.00 | 96 | 984.0 |
| 20260510012725 | 55 | 204 | 0.0 | 1.0 | 0.00 | 0.00 | 0.00 | 95 | 984.0 |
| 20260510012131 | 56 | 175 | 0.0 | 0.0 | 0.00 | 0.00 | 0.00 | 95 | 983.7 |
| 20260510011556 | 56 | 228 | 0.0 | 0.0 | 0.00 | 0.00 | 0.00 | 94 | 983.7 |
| 20260510010951 | 56 | 196 | 0.0 | 0.0 | 0.00 | 0.00 | 0.00 | 94 | 983.4 |
| 20260510010348 | 57 | 202 | 0.0 | 2.0 | 0.00 | 0.00 | 0.00 | 93 | 983.4 |
| 20260510005143 | 57 | 183 | 0.0 | 0.0 | 0.00 | 0.00 | 0.00 | 92 | 983.0 |
| 20260510004550 | 58 | 184 | 0.0 | 1.0 | 0.00 | 0.00 | 0.00 | 91 | 983.0 |
| 20260510003307 | 59 | 111 | 0.0 | 1.0 | 0.00 | 0.00 | 0.00 | 89 | 982.7 |
| 20260510002716 | 59 | 236 | 0.0 | 0.0 | 0.00 | 0.00 | 0.00 | 88 | 983.0 |
| 20260510001511 | 60 | 215 | 0.0 | 0.0 | 0.00 | 0.00 | 0.00 | 85 | 983.0 |
| 20260510000943 | 60 | 200 | 0.0 | 0.0 | 0.00 | 0.00 | 0.00 | 85 | 982.7 |
| 20260510000349 | 61 | 190 | 2.0 | 2.0 | 0.00 | 0.00 | 0.00 | 84 | 982.7 |
| 20260509235710 | 61 | 300 | 0.0 | 0.0 | 0.00 | 0.00 | 0.00 | 83 | 982.3 |
| 20260509235126 | 62 | 7 | 0.0 | 0.0 | 0.00 | 0.00 | 0.00 | 82 | |
| 20260509234543 | 62 | 254 | 0.0 | 0.0 | 0.00 | 0.00 | 0.00 | 80 | 982.3 |
| 20260509233949 | 62 | 266 | 0.0 | 0.0 | 0.00 | 0.00 | 0.00 | 80 | 982.3 |
| 20260509233339 | 63 | 262 | 1.0 | 1.0 | 0.00 | 0.00 | 0.00 | 77 | 982.3 |
| 20260509232130 | 64 | 267 | 0.0 | 1.0 | 0.00 | 0.00 | 0.00 | 75 | 982.3 |
| 20260509231509 | 65 | 306 | 0.0 | 1.0 | 0.00 | 0.00 | 0.00 | 74 | 982.3 |
| 20260509230951 | 66 | 309 | 1.0 | 1.0 | 0.00 | 0.00 | 0.00 | 71 | 982.3 |
| 20260509230332 | 66 | 306 | 0.0 | 1.0 | 0.00 | 0.00 | 0.00 | 70 | 982.3 |
| 20260509225146 | 68 | 66 | 3.0 | 3.0 | 0.00 | 0.00 | 0.00 | 66 | |
| 20260509224535 | 69 | 41 | 2.0 | 9.0 | 0.00 | 0.00 | 0.00 | 57 | 982.3 |
| 20260509223928 | 68 | 85 | 0.0 | 2.0 | 0.00 | 0.00 | 0.00 | 59 | 982.3 |
| 20260509223343 | 70 | 41 | 0.0 | 1.0 | 0.00 | 0.00 | 0.00 | 61 | 982.3 |
| 20260509222130 | 70 | 75 | 3.0 | 4.0 | 0.00 | 0.00 | 0.00 | 58 | 982.3 |
| 20260509220918 | 72 | 167 | 1.0 | 2.0 | 0.00 | 0.00 | 0.00 | 56 | 982.3 |
| 20260509220325 | 71 | 298 | 0.0 | 1.0 | 0.00 | 0.00 | 0.00 | 57 | 982.3 |
| 20260509215723 | 71 | 208 | 2.0 | 2.0 | 0.00 | 0.00 | 0.00 | 54 | 982.7 |
| 20260509215134 | 70 | 237 | 1.0 | 4.0 | 0.00 | 0.00 | 0.00 | 54 | 982.3 |
| 20260509214520 | 70 | 189 | 1.0 | 4.0 | 0.00 | 0.00 | 0.00 | 55 | 982.3 |
| 20260509213335 | 71 | 336 | 0.0 | 0.0 | 0.00 | 0.00 | 0.00 | 58 | 982.3 |
| 20260509212739 | 70 | 348 | 0.0 | 1.0 | 0.00 | 0.00 | 0.00 | 61 | 982.3 |
| 20260509212145 | 70 | 57 | 0.0 | 1.0 | 0.00 | 0.00 | 0.00 | 60 | 982.3 |
| 20260509211542 | 70 | 68 | 0.0 | 1.0 | 0.00 | 0.00 | 0.00 | 58 | 982.3 |
| 20260509210931 | 71 | 159 | 2.0 | 4.0 | 0.00 | 0.00 | 0.00 | 55 | 982.3 |
| 20260509210318 | 72 | 190 | 0.0 | 0.0 | 0.00 | 0.00 | 0.00 | 59 | 982.3 |
| 20260509205747 | 72 | 0 | 0.0 | 0.0 | 0.00 | 0.00 | 0.00 | 56 | 982.3 |
| 20260509205134 | 71 | 124 | 1.0 | 2.0 | 0.00 | 0.00 | 0.00 | 53 | 982.3 |
| 20260509204537 | 70 | 107 | 1.0 | 2.0 | 0.00 | 0.00 | 0.00 | 57 | 982.3 |
| 20260509203950 | 71 | 106 | 4.0 | 4.0 | 0.00 | 0.00 | 0.00 | 55 | 982.3 |
| 20260509203321 | 72 | 326 | 3.0 | 6.0 | 0.00 | 0.00 | 0.00 | 53 | 982.3 |
| 20260509202753 | 72 | 152 | 0.0 | 1.0 | 0.00 | 0.00 | 0.00 | 52 | |
| 20260509202126 | 72 | 66 | 0.0 | 2.0 | 0.00 | 0.00 | 0.00 | 54 | |
| 20260509201532 | 71 | 45 | 1.0 | 3.0 | 0.00 | 0.00 | 0.00 | 52 | |
| 20260509200939 | 71 | 83 | 1.0 | 7.0 | 0.00 | 0.00 | 0.00 | 53 | |
| 20260509200309 | 71 | 289 | 1.0 | 1.0 | 0.00 | 0.00 | 0.00 | 52 | |
| 20260509195125 | 72 | 301 | 3.0 | 6.0 | 0.00 | 0.00 | 0.00 | 49 | |
| 20260509193915 | 70 | 335 | 3.0 | 3.0 | 0.00 | 0.00 | 0.00 | 51 | |
| 20260509193337 | 70 | 25 | 1.0 | 2.0 | 0.00 | 0.00 | 0.00 | 58 | |
| 20260509192748 | 70 | 87 | 3.0 | 4.0 | 0.00 | 0.00 | 0.00 | 50 | 982.3 |
| 20260509191528 | 72 | 257 | 1.0 | 2.0 | 0.00 | 0.00 | 0.00 | 47 | |
| 20260509190313 | 72 | 18 | 2.0 | 4.0 | 0.00 | 0.00 | 0.00 | 48 | |
| 20260509185750 | 71 | 31 | 1.0 | 1.0 | 0.00 | 0.00 | 0.00 | 48 | |
| 20260509185114 | 71 | 0 | 2.0 | 3.0 | 0.00 | 0.00 | 0.00 | 50 | |
| 20260509184531 | 71 | 33 | 3.0 | 4.0 | 0.00 | 0.00 | 0.00 | 48 | |
| 20260509183936 | 72 | 337 | 0.0 | 1.0 | 0.00 | 0.00 | 0.00 | 55 | |
| 20260509183343 | 71 | 13 | 0.0 | 1.0 | 0.00 | 0.00 | 0.00 | 54 | |
| 20260509182727 | 71 | 143 | 0.0 | 4.0 | 0.00 | 0.00 | 0.00 | 51 | |
| 20260509182153 | 70 | 231 | 1.0 | 6.0 | 0.00 | 0.00 | 0.00 | 48 | |
| 20260509181515 | 70 | 156 | 1.0 | 3.0 | 0.00 | 0.00 | 0.00 | 48 | |
| 20260509180942 | 71 | 98 | 2.0 | 3.0 | 0.00 | 0.00 | 0.00 | 48 | |
| 20260509180315 | 70 | 21 | 0.0 | 1.0 | 0.00 | 0.00 | 0.00 | 49 | |
| 20260509175737 | 69 | 306 | 2.0 | 4.0 | 0.00 | 0.00 | 0.00 | 51 | |
| 20260509175152 | 71 | 49 | 1.0 | 4.0 | 0.00 | 0.00 | 0.00 | 47 | 982.3 |
| 20260509174526 | 71 | 54 | 1.0 | 4.0 | 0.00 | 0.00 | 0.00 | 52 | 982.3 |
| 20260509173311 | 69 | 325 | 0.0 | 1.0 | 0.00 | 0.00 | 0.00 | 50 | 982.3 |
| 20260509172726 | 68 | 32 | 4.0 | 7.0 | 0.00 | 0.00 | 0.00 | 52 | 982.3 |
| 20260509171510 | 70 | 352 | 4.0 | 6.0 | 0.00 | 0.00 | 0.00 | 53 | 982.7 |
| 20260509170921 | 69 | 59 | 2.0 | 8.0 | 0.00 | 0.00 | 0.00 | 53 | 982.3 |
| 20260509170323 | 70 | 98 | 1.0 | 2.0 | 0.00 | 0.00 | 0.00 | 54 | 982.7 |
| 20260509165719 | 68 | 7 | 2.0 | 2.0 | 0.00 | 0.00 | 0.00 | 56 | 982.7 |
| 20260509165133 | 67 | 326 | 0.0 | 4.0 | 0.00 | 0.00 | 0.00 | 57 | 982.7 |
| 20260509164539 | 67 | 70 | 2.0 | 3.0 | 0.00 | 0.00 | 0.00 | 56 | 983.0 |
| 20260509163934 | 66 | 109 | 3.0 | 6.0 | 0.00 | 0.00 | 0.00 | 57 | 983.0 |
| 20260509162115 | 66 | 309 | 6.0 | 10.0 | 0.00 | 0.00 | 0.00 | 59 | 983.0 |
| 20260509161540 | 66 | 359 | 2.0 | 6.0 | 0.00 | 0.00 | 0.00 | 58 | 982.7 |
| 20260509160930 | 66 | 9 | 4.0 | 6.0 | 0.00 | 0.00 | 0.00 | 59 | 983.0 |
| 20260509160345 | 68 | 113 | 2.0 | 6.0 | 0.00 | 0.00 | 0.00 | 59 | 982.7 |
| 20260509155716 | 67 | 109 | 3.0 | 6.0 | 0.00 | 0.00 | 0.00 | 60 | 983.0 |
| 20260509154540 | 66 | 339 | 1.0 | 2.0 | 0.00 | 0.00 | 0.00 | 64 | 982.7 |
| 20260509153940 | 66 | 209 | 3.0 | 4.0 | 0.00 | 0.00 | 0.00 | 61 | 982.3 |